Weather History for Sonora, TX

Change the Weather History Date:

Wednesday, November 27, 2013

  Actual Average (KOZA) Record (KOZA)
Temperature  
Mean Temperature 38 °F -  
Max Temperature 50 °F 66 °F 59 °F (2012)
Min Temperature 26 °F 37 °F 24 °F (2013)
Degree Days  
Heating Degree Days 27    
Moisture  
Dew Point 28 °F    
Average Humidity 75    
Maximum Humidity 100    
Minimum Humidity 37    
Precipitation  
Precipitation 0.00 in - - ()
Sea Level Pressure  
Sea Level Pressure 30.43 in    
Wind  
Wind Speed 2 mph (NNE)    
Max Wind Speed 10 mph    
Max Gust Speed -    
Visibility 10 miles    
Events      
Averages and records for this station are not official NWS values.
T = Trace of Precipitation, MM = Missing Value Source: NWS Daily Summary

Daily Weather History Graph

Daily Weather History Graph

Search for Another Location

Airport:

Trip Planner

Search our weather history database for the weather conditions in past years. The results will help you decide how hot, cold, wet, or windy it might be!

Date:

Astronomy

Nov. 27, 2013 Rise Set
Actual Time 7:19 AM CST 5:41 PM CST
Civil Twilight 6:53 AM CST 6:07 PM CST
Nautical Twilight 6:23 AM CST 6:37 PM CST
Astronomical Twilight 5:54 AM CST 7:06 PM CST
Moon 1:45 AM CST (11/27) 1:59 PM CST (11/27)
Length of Visible Light 11h 14m
Length of Day
10h 22m
Waning Crescent, 31% of the Moon is Illuminated
Nov 27
Waning Crescent
Dec 2
New
Dec 9
First Quarter
Dec 17
Full
Dec 25
Last Quarter

Hourly Weather History & Observations

Time (CST) Temp. Windchill Dew Point Humidity Pressure Visibility Wind Dir Wind Speed Gust Speed Precip Events Conditions
12:15 AM 32.0 °F 27.5 °F 30.2 °F 93% 30.46 in 10.0 mi North 4.6 mph - N/A   Clear
12:35 AM 32.0 °F 27.5 °F 30.2 °F 93% 30.46 in 10.0 mi North 4.6 mph - N/A   Clear
12:55 AM 32.0 °F 27.5 °F 30.2 °F 93% 30.45 in 10.0 mi NNE 4.6 mph - N/A   Clear
1:15 AM 32.0 °F - 30.2 °F 93% 30.45 in 10.0 mi Calm Calm - N/A   Clear
1:35 AM 32.0 °F - 30.2 °F 93% 30.45 in 10.0 mi Calm Calm - N/A   Clear
1:55 AM 32.0 °F - 30.2 °F 93% 30.45 in 10.0 mi Calm Calm - N/A   Clear
2:15 AM 30.2 °F - 30.2 °F 100% 30.45 in 10.0 mi Calm Calm - N/A   Clear
2:35 AM 30.2 °F - 30.2 °F 100% 30.45 in 10.0 mi Calm Calm - N/A   Clear
2:55 AM 30.2 °F - 28.4 °F 93% 30.46 in 10.0 mi Calm Calm - N/A   Clear
3:15 AM 30.2 °F - 28.4 °F 93% 30.46 in 10.0 mi Calm Calm - N/A   Clear
3:35 AM 28.4 °F 23.3 °F 28.4 °F 100% 30.45 in 10.0 mi NNE 4.6 mph - N/A   Clear
3:55 AM 28.4 °F - 28.4 °F 100% 30.46 in 10.0 mi Calm Calm - N/A   Clear
4:15 AM 28.4 °F - 28.4 °F 100% 30.45 in 10.0 mi Calm Calm - N/A   Clear
4:35 AM 28.4 °F - 28.4 °F 100% 30.46 in 10.0 mi Calm Calm - N/A   Clear
4:55 AM 28.4 °F 24.6 °F 28.4 °F 100% 30.46 in 10.0 mi NNE 3.5 mph - N/A   Clear
5:15 AM 30.2 °F - 28.4 °F 93% 30.47 in 10.0 mi Calm Calm - N/A   Clear
5:35 AM 28.4 °F - 26.6 °F 93% 30.47 in 10.0 mi Calm Calm - N/A   Clear
5:55 AM 28.4 °F 24.6 °F 28.4 °F 100% 30.48 in 10.0 mi North 3.5 mph - N/A   Clear
6:15 AM 28.4 °F 24.6 °F 26.6 °F 93% 30.49 in 10.0 mi NNE 3.5 mph - N/A   Clear
6:35 AM 26.6 °F 22.6 °F 26.6 °F 100% 30.49 in 10.0 mi NNE 3.5 mph - N/A   Clear
6:55 AM 26.6 °F 21.2 °F 26.6 °F 100% 30.49 in 10.0 mi North 4.6 mph - N/A   Clear
7:15 AM 28.4 °F 23.3 °F 26.6 °F 93% 30.49 in 10.0 mi North 4.6 mph - N/A   Clear
7:35 AM 28.4 °F 22.2 °F 26.6 °F 93% 30.50 in 10.0 mi North 5.8 mph - N/A   Clear
7:55 AM 30.2 °F - 28.4 °F 93% 30.50 in 10.0 mi Calm Calm - N/A   Clear
8:15 AM 32.0 °F 28.7 °F 30.2 °F 93% 30.50 in 10.0 mi NE 3.5 mph - N/A   Clear
8:35 AM 33.8 °F 27.7 °F 30.2 °F 87% 30.50 in 10.0 mi NNE 6.9 mph - N/A   Clear
8:55 AM 35.6 °F 28.0 °F 26.6 °F 70% 30.50 in 10.0 mi NE 10.4 mph - N/A   Clear
9:15 AM 35.6 °F 28.0 °F 26.6 °F 70% 30.50 in 10.0 mi NNE 10.4 mph - N/A   Clear
9:35 AM 37.4 °F 30.3 °F 24.8 °F 60% 30.51 in 10.0 mi NNE 10.4 mph - N/A   Clear
9:55 AM 37.4 °F 30.8 °F 24.8 °F 60% 30.51 in 10.0 mi NNE 9.2 mph - N/A   Clear
10:15 AM 39.2 °F 35.0 °F 24.8 °F 56% 30.51 in 10.0 mi ENE 5.8 mph - N/A   Clear
10:35 AM 41.0 °F 39.0 °F 26.6 °F 57% 30.50 in 10.0 mi North 3.5 mph - N/A   Clear
10:55 AM 42.8 °F - 26.6 °F 53% 30.50 in 10.0 mi Calm Calm - N/A   Clear
11:15 AM 42.8 °F - 26.6 °F 53% 30.49 in 10.0 mi Calm Calm - N/A   Clear
11:35 AM 44.6 °F 40.7 °F 26.6 °F 49% 30.48 in 10.0 mi NE 6.9 mph - N/A   Clear
11:55 AM 44.6 °F - 28.4 °F 53% 30.46 in 10.0 mi Calm Calm - N/A   Clear
12:15 PM 46.4 °F 44.3 °F 26.6 °F 46% 30.45 in 10.0 mi NE 4.6 mph - N/A   Clear
12:35 PM 46.4 °F 44.3 °F 26.6 °F 46% 30.44 in 10.0 mi NE 4.6 mph - N/A   Clear
12:55 PM 46.4 °F 45.2 °F 24.8 °F 43% 30.42 in 10.0 mi NNW 3.5 mph - N/A   Clear
1:15 PM 46.4 °F - 23.0 °F 40% 30.42 in 10.0 mi Calm Calm - N/A   Clear
1:35 PM 46.4 °F 44.3 °F 24.8 °F 43% 30.40 in 10.0 mi ESE 4.6 mph - N/A   Clear
1:55 PM 48.2 °F - 26.6 °F 43% 30.39 in 10.0 mi North 3.5 mph - N/A   Clear
2:15 PM 48.2 °F - 26.6 °F 43% 30.38 in 10.0 mi South 3.5 mph - N/A   Clear
2:35 PM 48.2 °F - 26.6 °F 43% 30.37 in 10.0 mi NE 4.6 mph - N/A   Clear
2:55 PM 50.0 °F - 26.6 °F 40% 30.38 in 10.0 mi Calm Calm - N/A   Clear
3:15 PM 48.2 °F - 24.8 °F 40% 30.36 in 10.0 mi Calm Calm - N/A   Clear
3:35 PM 48.2 °F - 23.0 °F 37% 30.36 in 10.0 mi South 3.5 mph - N/A   Clear
3:55 PM 48.2 °F - 23.0 °F 37% 30.37 in 10.0 mi Calm Calm - N/A   Clear
4:15 PM 48.2 °F - 23.0 °F 37% 30.36 in 10.0 mi Calm Calm - N/A   Clear
4:35 PM 48.2 °F - 23.0 °F 37% 30.36 in 10.0 mi Calm Calm - N/A   Clear
4:55 PM 48.2 °F - 23.0 °F 37% 30.35 in 10.0 mi ESE 3.5 mph - N/A   Clear
5:15 PM 46.4 °F - 26.6 °F 46% 30.35 in 10.0 mi Calm Calm - N/A   Clear
5:35 PM 44.6 °F - 30.2 °F 57% 30.36 in 10.0 mi Calm Calm - N/A   Clear
5:55 PM 44.6 °F - 28.4 °F 53% 30.37 in 10.0 mi Calm Calm - N/A   Clear
6:15 PM 42.8 °F - 32.0 °F 66% 30.36 in 10.0 mi Calm Calm - N/A   Clear
6:35 PM 39.2 °F - 30.2 °F 70% 30.37 in 10.0 mi Calm Calm - N/A   Clear
6:55 PM 37.4 °F - 32.0 °F 81% 30.37 in 10.0 mi Calm Calm - N/A   Clear
7:15 PM 37.4 °F - 32.0 °F 81% 30.37 in 10.0 mi Calm Calm - N/A   Clear
7:35 PM 35.6 °F - 32.0 °F 87% 30.38 in 10.0 mi Calm Calm - N/A   Clear
7:55 PM 35.6 °F - 32.0 °F 87% 30.38 in 10.0 mi Calm Calm - N/A   Clear
8:15 PM 35.6 °F - 32.0 °F 87% 30.37 in 10.0 mi Calm Calm - N/A   Clear
8:35 PM 33.8 °F - 32.0 °F 93% 30.37 in 10.0 mi Calm Calm - N/A   Clear
8:55 PM 33.8 °F - 32.0 °F 93% 30.37 in 10.0 mi Calm Calm - N/A   Clear
9:15 PM 33.8 °F - 32.0 °F 93% 30.37 in 10.0 mi Calm Calm - N/A   Clear
9:35 PM 33.8 °F - 32.0 °F 93% 30.37 in 10.0 mi Calm Calm - N/A   Clear
9:55 PM 33.8 °F - 32.0 °F 93% 30.37 in 10.0 mi Calm Calm - N/A   Clear
10:15 PM 33.8 °F - 32.0 °F 93% 30.38 in 10.0 mi Calm Calm - N/A   Clear
10:35 PM 33.8 °F - 32.0 °F 93% 30.38 in 10.0 mi Calm Calm - N/A   Clear
10:55 PM 33.8 °F - 32.0 °F 93% 30.37 in 10.0 mi Calm Calm - N/A   Clear
11:15 PM 33.8 °F - 32.0 °F 93% 30.37 in 10.0 mi Calm Calm - N/A   Clear
11:35 PM 33.8 °F - 32.0 °F 93% 30.36 in 10.0 mi Calm Calm - N/A   Clear
11:55 PM 35.6 °F - 30.2 °F 81% 30.36 in 10.0 mi Calm Calm - N/A   Clear